Printer-friendly version

IAU Minor Planet Center

Minor Planet Center

MPEC 2006-J34 : 2006 JX25

The following Minor Planet Electronic Circular may be linked-to from your own Web pages, but must not otherwise be redistributed electronically.


Read MPEC 2006-J33 Read MPEC 2006-J35


M.P.E.C. 2006-J34                                Issued 2006 May 8, 09:22 UT

     The Minor Planet Electronic Circulars contain information on unusual
         minor planets and routine data on comets.  They are published
   on behalf of Commission 20 of the International Astronomical Union by the
          Minor Planet Center, Smithsonian Astrophysical Observatory,
                          Cambridge, MA 02138, U.S.A.

                  Supported in part by the Brinson Foundation
                  Supported in part by the TABASGO Foundation
             Prepared using the Tamkin Foundation Computer Network

                              MPC@CFA.HARVARD.EDU
          URL http://cfa-www.harvard.edu/iau/mpc.html  ISSN 1523-6714

                                   2006 JX25

Observations:
     K06J25X* C2006 05 04.27082 14 18 23.36 -13 20 27.7          20.2 V EJ034G96
     K06J25X  C2006 05 04.27715 14 18 22.82 -13 20 26.5          20.5 V EJ034G96
     K06J25X  C2006 05 04.28336 14 18 22.28 -13 20 25.4          21.0 V EJ034G96
     K06J25X  C2006 05 04.28978 14 18 21.70 -13 20 24.2          21.1 V EJ034G96
     K06J25X  C2006 05 04.32017 14 18 19.11 -13 20 19.3          21.2 V EJ034G96
     K06J25X  C2006 05 04.32506 14 18 18.64 -13 20 17.5          20.8 V EJ034G96
     K06J25X  C2006 05 04.33016 14 18 18.25 -13 20 16.4          20.6 V EJ034G96
     K06J25X  C2006 05 04.33515 14 18 17.82 -13 20 16.0          20.4 V EJ034G96
     K06J25X  C2006 05 06.28293 14 15 37.40 -13 13 58.9          20.7 V EJ034G96
     K06J25X  C2006 05 06.28807 14 15 36.97 -13 13 57.7          20.3 V EJ034G96
     K06J25X  C2006 05 06.29312 14 15 36.50 -13 13 56.6          21.0 V EJ034G96
     K06J25X  C2006 05 06.29856 14 15 36.03 -13 13 56.3          20.8 V EJ034G96
     K06J25X  C2006 05 06.36797 14 15 30.05 -13 13 44.4          19.2 R EJ034682
     K06J25X  C2006 05 06.38984 14 15 27.97 -13 13 38.3          20.2 R EJ034682
     K06J25X  C2006 05 06.41176 14 15 26.39 -13 13 33.8          21.0 R EJ034682
     K06J25X  C2006 05 07.30350 14 14 12.73 -13 10 41.2          19.7 V EJ034G96
     K06J25X  C2006 05 07.30980 14 14 12.12 -13 10 39.7          20.8 V EJ034G96
     K06J25X  C2006 05 07.31632 14 14 11.54 -13 10 38.7          20.6 V EJ034G96
     K06J25X  C2006 05 07.32293 14 14 10.96 -13 10 37.2          20.4 V EJ034G96
     K06J25X  C2006 05 08.21248 14 12 57.69 -13 07 45.3                 EJ034291
     K06J25X  C2006 05 08.22892 14 12 56.19 -13 07 42.5                 EJ034291
     K06J25X  C2006 05 08.23268 14 12 55.88 -13 07 41.4                 EJ034291

Observer details:
291 LPL/Spacewatch II.  Observer R. S. McMillan.  1.8-m f/2.7 reflector + CCD.
682 Kanab.  Observer E. Sheridan.  0.36-m f/5.5 Schmidt-Cassegrain + CCD.
G96 Mt. Lemmon Survey.  Observers E. C. Beshore, A. D. Grauer.  Measurers
    E. C. Beshore, E. J. Christensen, G. J. Garradd, A. R. Gibbs, A. D. Grauer,
    R. E. Hill, R. A. Kowalski, S. M. Larson, R. H. McNaught.  1.5-m reflector
    + CCD.

Orbital elements:
2006 JX25                                                Earth MOID = 0.2229 AU
Epoch 2006 Mar. 6.0 TT = JDT 2453800.5                  MPC
M 302.68785              (2000.0)            P               Q
n   0.30316107     Peri.  263.98063     +0.61577475     +0.78690005
a   2.1945919      Node    44.11135     -0.69818655     +0.56853751
e   0.4404518      Incl.    3.30447     -0.36518077     +0.23990292
P   3.25           H   19.7           G   0.15           U   9
Residuals in seconds of arc
060504 G96  0.0   0.5+    060506 G96  0.1+  0.1-    060507 G96  0.3-  0.2+
060504 G96  0.1+  0.5+    060506 G96  0.4+  0.1+    060507 G96  0.5-  0.1-
060504 G96  0.1+  0.4+    060506 G96  0.1-  0.2+    060507 G96  0.5-  0.1+
060504 G96  0.3-  0.3+    060506 G96  0.0   0.6-    060508 291  0.6+  0.1+
060504 G96  0.2+  0.7-    060506 682  0.3+  1.7-    060508 291  0.4-  0.1-
060504 G96  0.5-  0.2+    060506 682  2.5-  0.1-    060508 291  0.1-  0.3+
060504 G96  0.2+  0.3+    060506 682  1.9+  0.0
060504 G96  0.3+  0.3-    060507 G96  0.5+  0.1-

Ephemeris:
2006 JX25                a,e,i = 2.20, 0.44, 3                   q = 1.2282
Date    TT    R. A. (2000) Decl.     Delta      r     Elong.  Phase     V
2006 05 05    14 17.39   -13 18.0    0.730    1.735   172.2     4.5    20.6
2006 05 15    14 03.69   -12 46.8    0.694    1.678   159.3    12.3    20.8
2006 05 25    13 51.55   -12 23.9    0.677    1.622   146.7    20.0    20.9
2006 06 04    13 42.99   -12 18.8    0.674    1.566   135.1    27.2    21.0
2006 06 14    13 39.30   -12 38.0    0.682    1.513   124.8    33.4    21.2
2006 06 24    13 40.88   -13 23.6    0.695    1.461   115.9    38.7    21.3
2006 07 04    13 47.77   -14 34.8    0.711    1.412   108.4    43.1    21.4
2006 07 14    13 59.70   -16 08.7    0.727    1.368   102.1    46.6    21.5
2006 07 24    14 16.38   -18 00.3    0.741    1.328    96.9    49.4    21.5
2006 08 03    14 37.69   -20 04.4    0.753    1.293    92.8    51.6    21.5
2006 08 13    15 03.51   -22 13.3    0.764    1.265    89.7    53.2    21.6
2006 08 23    15 33.77   -24 18.0    0.774    1.245    87.3    54.3    21.6
2006 09 02    16 08.38   -26 07.9    0.786    1.232    85.8    54.8    21.6
2006 09 12    16 46.92   -27 30.8    0.801    1.228    84.8    54.7    21.7
2006 09 22    17 28.60   -28 15.0    0.822    1.233    84.3    54.1    21.7
2006 10 02    18 12.24   -28 11.7    0.851    1.246    84.2    53.1    21.8
2006 10 12    18 56.30   -27 17.5    0.890    1.267    84.1    51.6    21.9
2006 10 22    19 39.32   -25 35.5    0.941    1.296    84.0    49.8    22.0

Timothy B. Spahr             (C) Copyright 2006 MPC           M.P.E.C. 2006-J34

Read MPEC 2006-J33 Read MPEC 2006-J35


Our Web policy. Index to the CBAT/MPC/ICQ pages.


Valid HTML 4.01!